Regional Weather Roundup
Issued by NWS Goodland, KS

Home | Current Version | Previous Version | Text Only | Print | Product List | Glossary On
Versions: 1 2 3 4 5 6 7 8 9 10 11 12 13 14 15 16 17 18 19 20 21 22 23 24 25 26 27 28 29 30 31 32 33 34 35 36 37 38 39 40 41 42 43 44 45 46 47 48 49 50
000
ASUS43 KGLD 212008
RWRGLD

GOODLAND FORECAST AREA HOURLY WEATHER ROUNDUP
NATIONAL WEATHER SERVICE GOODLAND KS
200 PM MDT THU AUG 21 2014

...OFFICIAL OBSERVATIONS...

CITY           SKY/WX    TMP DP  RH WIND       PRES   REMARKS
GOODLAND KS    SUNNY     93  47  20 N10       29.98S
HILL CITY KS   SUNNY     96  63  33 N9        29.85F
IMPERIAL NEB   SUNNY     90  54  29 N10       29.95F
MCCOOK NEB     MOSUNNY   94  54  25 N6        29.89F
AKRON CO       SUNNY     85  43  22 NW10G23   30.06S
BURLINGTON CO  SUNNY     89  46  22 N12       30.02S
LIMON CO       PTSUNNY   82  46  28 E10       30.10S
$$

...UNOFFICIAL OBSERVATIONS...

CITY           SKY/WX    TMP DP  RH WIND       PRES   REMARKS
COLBY KS       SUNNY     91  61  35 N7        29.95S
LENORA KS        N/A     91  32  12 CALM        N/A
NORTON KS      SUNNY     95  46  18 N9        29.86S
SHARON SPRINGS   N/A     92  57  30 CALM        N/A
WAKEENEY KS      N/A     97  57  25 MISG        N/A
KIT CARSON CO    N/A     90  49  24 MISG        N/A
YUMA CO          N/A     88  44  21 W12         N/A
$$


USA.gov is the U.S. government's official web portal to all federal, state and local government web resources and services.